CW5612 Weather Reports


time (UTC)temp
C
wind
direction
speed
KPH
gust
KPH
rain 1hr
cm
rain 24hr
cm
rain mn
cm
humidity
%
barometer
mb
20260507160705 12 106 4.8 11.3 0.00 0.13 0.13 82 1012.4
20260507160206 12 157 1.6 4.8 0.00 0.13 0.13 83 1012.4
20260507155706 12 156 3.2 8.0 0.00 0.13 0.13 83 1012.5
20260507155205 12 138 3.2 8.0 0.00 0.13 0.13 84 1012.7
20260507154705 12 188 1.6 4.8 0.00 0.13 0.13 84 1012.4
20260507154204 13 203 0.0 0.0 0.00 0.13 0.13 84 1012.4
20260507153704 13 203 0.0 0.0 0.00 0.13 0.13 84 1012.4
20260507153204 13 203 0.0 0.0 0.00 0.13 0.13 83 1012.6
20260507152706 13 203 1.6 4.8 0.00 0.13 0.13 83 1012.5
20260507152205 13 203 0.0 0.0 0.00 0.13 0.13 85 1012.3
20260507151704 13 203 0.0 0.0 0.00 0.13 0.13 86 1012.3
20260507151205 13 203 0.0 0.0 0.00 0.13 0.13 86 1012.5
20260507150706 13 203 1.6 8.0 0.00 0.13 0.13 85 1012.4
20260507150205 13 165 4.8 11.3 0.00 0.13 0.13 85 1012.5
20260507145704 13 173 0.0 4.8 0.00 0.15 0.13 86 1012.6
20260507145205 13 185 0.0 0.0 0.00 0.15 0.13 86 1012.4
20260507144705 13 214 0.0 0.0 0.00 0.15 0.13 85 1012.5
20260507144205 13 213 0.0 0.0 0.00 0.18 0.13 86 1012.4
20260507143705 13 213 0.0 0.0 0.00 0.18 0.13 87 1012.2
20260507143204 13 213 0.0 0.0 0.00 0.20 0.13 87 1012.1
20260507142705 13 213 0.0 0.0 0.00 0.23 0.13 87 1012.4
20260507142204 13 213 0.0 0.0 0.00 0.25 0.13 87 1012.3
20260507141704 13 251 0.0 0.0 0.00 0.25 0.13 87 1012.3
20260507141204 13 251 0.0 1.6 0.00 0.25 0.13 87 1012.3
20260507140705 13 251 0.0 1.6 0.00 0.25 0.13 87 1012.6
20260507140205 13 251 3.2 8.0 0.00 0.28 0.13 86 1012.6
20260507135704 13 170 1.6 8.0 0.00 0.28 0.13 87 1012.4
20260507135204 13 170 4.8 11.3 0.00 0.28 0.13 87 1012.5
20260507134704 13 207 0.0 8.0 0.00 0.28 0.13 88 1012.6
20260507134204 13 219 0.0 0.0 0.00 0.28 0.13 89 1012.7
20260507133705 13 200 0.0 0.0 0.00 0.28 0.13 89 1012.4
20260507133204 13 210 3.2 11.3 0.00 0.28 0.13 89 1012.4
20260507132204 13 227 1.6 19.3 0.00 0.28 0.13 91 1012.0
20260507131704 13 238 0.0 8.0 0.00 0.28 0.13 91 1012.0
20260507131206 13 245 1.6 8.0 0.00 0.28 0.13 91 1012.0
20260507130705 13 294 0.0 4.8 0.00 0.28 0.13 92 1012.1
20260507130206 13 210 1.6 12.9 0.00 0.28 0.13 92 1011.8
20260507125704 13 244 0.0 0.0 0.00 0.28 0.13 92 1011.8
20260507125205 13 244 0.0 0.0 0.00 0.28 0.13 91 1012.2
20260507124706 13 244 0.0 0.0 0.00 0.28 0.13 91 1012.4
20260507123705 13 213 0.0 1.6 0.00 0.28 0.13 91 1012.2
20260507123204 13 213 0.0 0.0 0.00 0.28 0.13 91 1012.3
20260507122705 13 213 0.0 0.0 0.00 0.28 0.13 91 1012.5
20260507122205 13 214 0.0 0.0 0.00 0.28 0.13 91 1012.1
20260507121704 13 214 0.0 0.0 0.00 0.28 0.13 91 1011.8
20260507121205 13 213 0.0 0.0 0.00 0.28 0.13 91 1011.7
20260507120705 13 214 0.0 0.0 0.00 0.28 0.13 91 1011.7
20260507120205 13 213 0.0 0.0 0.00 0.28 0.13 91 1011.9
20260507115705 13 214 0.0 0.0 0.00 0.28 0.13 91 1012.2
20260507115205 13 214 0.0 0.0 0.00 0.28 0.13 91 1012.0
20260507114706 13 214 0.0 0.0 0.00 0.28 0.13 91 1012.2
20260507114204 13 214 0.0 0.0 0.00 0.28 0.13 91 1012.3
20260507113704 13 215 0.0 1.6 0.00 0.28 0.13 91 1012.2
20260507113204 13 215 0.0 0.0 0.00 0.28 0.13 91 1012.1
20260507112706 13 215 0.0 1.6 0.00 0.28 0.13 90 1012.1
20260507112204 13 214 0.0 0.0 0.00 0.28 0.13 90 1011.9
20260507111204 13 213 0.0 0.0 0.00 0.28 0.13 90 1011.3
20260507110704 13 213 0.0 0.0 0.00 0.28 0.13 90 1011.6
20260507105704 13 213 0.0 0.0 0.00 0.28 0.13 89 1011.9
20260507104705 13 212 0.0 0.0 0.03 0.28 0.13 89 1011.6
20260507104205 13 212 0.0 0.0 0.03 0.28 0.13 89 1011.5
20260507103204 13 212 0.0 0.0 0.03 0.28 0.13 88 1011.3
20260507102704 14 211 0.0 0.0 0.03 0.28 0.13 88 1011.3
20260507101704 14 200 3.2 11.3 0.05 0.28 0.13 88 1011.1
20260507101205 14 201 3.2 4.8 0.05 0.28 0.13 88 1011.1
20260507100704 15 201 1.6 4.8 0.05 0.28 0.13 87 1011.1
20260507100205 15 185 0.0 8.0 0.08 0.28 0.13 87 1011.1
20260507095705 15 184 6.4 8.0 0.08 0.28 0.13 86 1011.3
20260507093704 16 164 11.3 12.9 0.08 0.25 0.10 85 1011.0
20260507093205 16 80 3.2 8.0 0.08 0.25 0.10 85 1011.0
20260507092704 17 77 0.0 0.0 0.08 0.25 0.10 85 1010.9
20260507092205 17 240 6.4 12.9 0.05 0.23 0.08 86 1010.8
20260507091704 17 136 0.0 8.0 0.05 0.23 0.08 85 1010.7
20260507091204 18 184 3.2 8.0 0.05 0.23 0.08 86 1010.7
20260507090705 18 186 0.0 8.0 0.05 0.23 0.08 89 1010.4
20260507090204 18 220 3.2 12.9 0.03 0.20 0.05 91 1010.2
20260507085204 18 295 0.0 0.0 0.03 0.20 0.05 91 1010.2
20260507084704 18 295 0.0 0.0 0.00 0.18 0.03 90 1010.3
20260507084204 18 295 0.0 0.0 0.00 0.18 0.03 90 1010.4
20260507083704 18 295 0.0 0.0 0.00 0.18 0.03 90 1010.1
20260507083204 18 295 0.0 0.0 0.00 0.18 0.03 90 1010.1
20260507082204 19 295 0.0 0.0 0.00 0.18 0.03 90 1009.8
20260507081703 19 295 0.0 0.0 0.00 0.18 0.03 90 1009.8
20260507081204 19 295 0.0 0.0 0.00 0.18 0.03 90 1009.9
20260507080704 19 295 0.0 0.0 0.00 0.18 0.03 90 1010.1
20260507080204 19 295 0.0 0.0 0.00 0.18 0.03 89 1009.5
20260507075705 19 295 0.0 0.0 0.03 0.18 0.03 89 1009.4
20260507075204 19 295 0.0 0.0 0.03 0.18 0.03 89 1009.3
20260507073703 19 295 0.0 0.0 0.03 0.18 0.03 89 1009.1
20260507073205 19 295 0.0 0.0 0.03 0.18 0.03 88 1009.2
20260507072204 20 295 0.0 0.0 0.03 0.18 0.03 88 1009.1
20260507071704 20 295 3.2 8.0 0.03 0.18 0.03 87 1009.3
20260507071205 20 295 0.0 0.0 0.03 0.18 0.03 87 1009.3
20260507070704 20 295 0.0 0.0 0.03 0.18 0.03 87 1009.6
20260507070204 20 295 0.0 0.0 0.03 0.18 0.03 86 1009.7
20260507065705 20 295 0.0 0.0 0.00 0.15 0.00 86 1009.8
20260507064704 20 295 0.0 0.0 0.00 0.15 0.00 85 1009.4
20260507064203 20 295 0.0 0.0 0.00 0.15 0.00 84 1009.3
20260507063704 20 295 0.0 0.0 0.00 0.15 0.00 84 1009.4
20260507062704 20 295 0.0 0.0 0.00 0.15 0.00 83 1009.3
20260507062205 20 295 0.0 0.0 0.00 0.15 0.00 83 1009.2
20260507061703 20 295 0.0 0.0 0.00 0.15 0.00 82 1009.1
20260507061204 20 295 0.0 0.0 0.00 0.15 0.00 82 1009.1
20260507060704 20 295 0.0 0.0 0.00 0.15 0.00 82 1009.2
20260507060204 20 296 0.0 0.0 0.00 0.15 0.00 82 1009.2
20260507055703 20 296 0.0 0.0 0.00 0.15 0.00 82 1009.2
20260507055203 20 296 0.0 0.0 0.00 0.15 0.00 82 1009.2
20260507053204 20 296 0.0 0.0 0.00 0.15 0.00 83 1009.6
20260507052204 20 296 0.0 0.0 0.00 0.15 0.00 83 1009.6
20260507051703 20 296 3.2 11.3 0.00 0.15 0.00 82 1009.7
20260507050704 20 295 0.0 4.8 0.00 0.15 0.00 82 1010.0
20260507050204 20 295 1.6 8.0 0.00 0.15 0.00 82 1010.3
20260507045705 20 302 8.0 12.9 0.00 0.15 0.00 82 1010.5
20260507045205 20 302 4.8 11.3 0.00 0.15 0.00 82 1010.7
20260507044203 20 305 0.0 0.0 0.00 0.15 0.00 83 1010.8
20260507043704 20 305 0.0 0.0 0.00 0.15 0.00 83 1010.9
20260507042703 20 305 0.0 1.6 0.00 0.15 0.00 83 1011.1
20260507042205 20 305 3.2 4.8 0.00 0.15 0.00 83 1011.0
20260507041703 20 306 1.6 11.3 0.00 0.15 0.00 83 1010.8
20260507040704 20 309 0.0 0.0 0.00 0.15 0.00 83 1010.8
20260507040207 20 309 0.0 0.0 0.00 0.15 0.00 83 1010.7
20260507035706 20 309 0.0 0.0 0.00 0.15 0.15 83 1010.6
20260507035206 20 309 0.0 0.0 0.00 0.15 0.15 84 1010.6
20260507034705 20 309 0.0 0.0 0.00 0.15 0.15 84 1010.7
20260507034205 20 309 0.0 0.0 0.00 0.15 0.15 84 1010.7
20260507033706 20 309 3.2 11.3 0.00 0.15 0.15 84 1010.7
20260507032205 20 309 0.0 0.0 0.00 0.15 0.15 85 1010.2
20260507031706 19 309 0.0 0.0 0.00 0.15 0.15 85 1010.1
20260507031205 19 309 0.0 0.0 0.00 0.15 0.15 85 1010.2
20260507030705 19 309 0.0 0.0 0.00 0.15 0.15 85 1010.3
20260507025705 19 309 0.0 0.0 0.00 0.15 0.15 85 1010.1
20260507025205 19 309 0.0 0.0 0.00 0.15 0.15 85 1009.9
20260507024705 19 309 0.0 0.0 0.00 0.15 0.15 85 1010.0
20260507024205 19 309 0.0 0.0 0.00 0.15 0.15 85 1010.0
20260507023705 19 309 0.0 0.0 0.00 0.15 0.15 85 1010.2
20260507023206 19 309 0.0 0.0 0.00 0.15 0.15 85 1010.3
20260507021705 19 309 0.0 0.0 0.00 0.15 0.15 84 1010.5
20260507020705 20 309 0.0 0.0 0.00 0.15 0.15 84 1010.6
20260507020205 20 309 0.0 0.0 0.00 0.15 0.15 84 1010.8
20260507015707 20 309 0.0 0.0 0.00 0.15 0.15 84 1011.0
20260507014706 20 309 0.0 0.0 0.00 0.15 0.15 83 1010.8
20260507014205 20 309 0.0 0.0 0.00 0.15 0.15 83 1010.9
20260507013706 20 309 0.0 0.0 0.00 0.15 0.15 83 1010.8
20260507013205 20 309 0.0 0.0 0.00 0.15 0.15 82 1010.7
20260507012706 20 309 0.0 0.0 0.00 0.15 0.15 82 1010.7
20260507012205 20 309 0.0 0.0 0.00 0.15 0.15 82 1010.6
20260507011706 20 309 0.0 0.0 0.00 0.15 0.15 82 1010.5
20260507011206 20 309 0.0 0.0 0.00 0.15 0.15 81 1010.6
20260507010707 20 309 0.0 0.0 0.00 0.15 0.15 81 1010.6
20260507010207 20 309 0.0 0.0 0.00 0.15 0.15 81 1010.7
20260507005705 20 309 0.0 0.0 0.00 0.15 0.15 81 1010.6
20260507005205 20 309 0.0 0.0 0.00 0.15 0.15 81 1010.6
20260507004705 20 309 0.0 0.0 0.00 0.15 0.15 80 1010.4
20260507004206 20 309 0.0 0.0 0.00 0.15 0.15 80 1010.3
20260507003205 21 309 0.0 0.0 0.00 0.15 0.15 80 1010.6
20260507002705 21 309 0.0 0.0 0.00 0.15 0.15 79 1010.6
20260507002206 21 309 0.0 0.0 0.00 0.15 0.15 79 1010.6
20260507001705 21 309 0.0 0.0 0.00 0.15 0.15 79 1010.7
20260507001205 21 309 0.0 0.0 0.00 0.15 0.15 78 1010.7
20260507000705 21 309 0.0 0.0 0.00 0.15 0.15 78 1010.8
20260507000206 21 309 0.0 0.0 0.00 0.15 0.15 78 1010.8
20260506235705 21 309 0.0 1.6 0.00 0.15 0.15 78 1010.8
20260506235205 21 309 3.2 4.8 0.00 0.15 0.15 78 1010.6
20260506234205 21 302 0.0 0.0 0.00 0.15 0.15 78 1010.4
20260506233705 21 302 0.0 0.0 0.00 0.15 0.15 78 1010.2
20260506233206 21 302 0.0 0.0 0.00 0.15 0.15 78 1010.2
20260506232705 21 302 0.0 0.0 0.00 0.15 0.15 77 1010.2
20260506232206 21 302 0.0 0.0 0.00 0.15 0.15 78 1010.2
20260506231705 21 302 0.0 0.0 0.00 0.15 0.15 77 1010.3
20260506230705 21 302 3.2 8.0 0.00 0.15 0.15 77 1010.3
20260506230205 21 302 0.0 0.0 0.00 0.15 0.15 77 1010.3
20260506225705 21 302 0.0 0.0 0.00 0.15 0.15 76 1010.3
20260506225205 21 302 0.0 0.0 0.00 0.15 0.15 77 1010.2
20260506224706 21 302 0.0 0.0 0.00 0.15 0.15 76 1010.2
20260506224205 21 302 0.0 0.0 0.00 0.15 0.15 76 1010.2
20260506223705 21 302 0.0 0.0 0.00 0.15 0.15 76 1010.2
20260506223205 21 302 0.0 0.0 0.00 0.15 0.15 76 1010.2
20260506222705 21 302 0.0 0.0 0.00 0.15 0.15 76 1010.3
20260506221705 21 302 0.0 11.3 0.00 0.15 0.15 75 1010.2
20260506221205 21 296 1.6 8.0 0.00 0.15 0.15 76 1010.3
20260506220706 21 296 8.0 11.3 0.00 0.15 0.15 75 1010.3
20260506220205 21 296 0.0 12.9 0.00 0.15 0.15 75 1010.2
20260506215704 21 284 0.0 0.0 0.00 0.15 0.15 75 1010.3
20260506215205 21 284 0.0 0.0 0.00 0.15 0.15 76 1010.2
20260506214205 21 296 0.0 11.3 0.00 0.15 0.15 76 1010.2
20260506213206 21 302 4.8 11.3 0.00 0.15 0.15 75 1010.4
20260506212705 21 290 3.2 8.0 0.00 0.15 0.15 76 1010.4
20260506211706 21 297 0.0 0.0 0.00 0.15 0.15 77 1010.7
20260506210705 21 288 11.3 19.3 0.00 0.15 0.15 77 1010.4
20260506210204 21 287 6.4 8.0 0.00 0.15 0.15 78 1010.2
20260506205705 20 291 6.4 11.3 0.00 0.15 0.15 78 1010.3
20260506204706 20 290 3.2 11.3 0.00 0.15 0.15 78 1010.2
20260506204204 20 290 6.4 11.3 0.00 0.15 0.15 79 1010.3
20260506203705 20 349 4.8 8.0 0.00 0.15 0.15 81 1010.3
20260506203204 20 349 3.2 11.3 0.00 0.15 0.15 80 1010.4
20260506202205 20 295 3.2 8.0 0.00 0.15 0.15 80 1010.3
20260506201705 20 294 1.6 8.0 0.00 0.15 0.15 80 1010.3
20260506201205 20 293 4.8 12.9 0.00 0.15 0.15 81 1010.3
20260506200707 20 280 0.0 0.0 0.00 0.15 0.15 82 1010.2
20260506195705 20 320 11.3 12.9 0.00 0.15 0.15 81 1010.1
20260506194205 19 295 4.8 12.9 0.00 0.15 0.15 82 1009.5
20260506193705 19 295 0.0 11.3 0.00 0.15 0.15 83 1009.3
20260506193205 19 295 4.8 8.0 0.00 0.15 0.15 85 1009.5
20260506192205 19 295 1.6 8.0 0.00 0.15 0.15 85 1009.9
20260506191705 19 295 0.0 0.0 0.00 0.15 0.15 84 1010.1
20260506191206 18 295 0.0 0.0 0.00 0.15 0.15 85 1010.2
20260506190704 18 292 6.4 8.0 0.00 0.15 0.15 84 1010.4
20260506190204 18 286 8.0 8.0 0.00 0.15 0.15 86 1010.4
20260506185705 18 272 3.2 8.0 0.00 0.15 0.15 86 1010.5
20260506184705 18 271 8.0 12.9 0.00 0.15 0.15 86 1010.5
20260506184205 18 299 3.2 12.9 0.00 0.15 0.15 87 1010.7
20260506183205 18 292 6.4 11.3 0.00 0.15 0.15 87 1011.2
20260506182704 18 293 0.0 0.0 0.00 0.15 0.15 87 1011.6
20260506181205 18 304 6.4 8.0 0.00 0.15 0.15 87 1011.8
20260506180705 18 304 3.2 4.8 0.00 0.15 0.15 87 1011.9
20260506175704 18 299 0.0 4.8 0.00 0.15 0.15 88 1011.9
20260506175205 18 299 4.8 8.0 0.00 0.15 0.15 87 1012.0
20260506174204 17 299 0.0 8.0 0.00 0.15 0.15 87 1012.0
20260506173704 17 299 3.2 4.8 0.00 0.15 0.15 87 1012.1
20260506172706 17 299 0.0 8.0 0.00 0.15 0.15 87 1012.0
20260506171705 17 295 3.2 4.8 0.00 0.15 0.15 88 1011.9
20260506171204 17 295 4.8 8.0 0.00 0.15 0.15 88 1011.8
20260506170206 17 296 0.0 0.0 0.00 0.15 0.15 88 1011.9
20260506165705 17 296 0.0 12.9 0.00 0.15 0.15 88 1012.1
20260506165204 17 301 6.4 12.9 0.00 0.15 0.15 88 1012.1
20260506164704 17 298 4.8 8.0 0.00 0.15 0.15 89 1012.1
20260506164204 17 298 8.0 8.0 0.00 0.15 0.15 89 1012.0
20260506163705 17 265 0.0 0.0 0.00 0.15 0.15 89 1012.1
20260506163206 17 305 0.0 0.0 0.00 0.15 0.15 89 1012.2
20260506162705 17 305 9.7 19.3 0.00 0.15 0.15 89 1012.1
20260506162205 17 294 8.0 12.9 0.00 0.15 0.15 89 1011.9
20260506161705 17 289 0.0 4.8 0.00 0.15 0.15 90 1011.8
20260506161205 17 289 3.2 12.9 0.00 0.15 0.15 89 1012.0